Sarasota, FL

4:03 PM EST on January 23, 2018 (GMT -0500)
Sarasota-bradenton

Weather History for KSRQ - May, 2013

Change the Weather History Date:

Monday, May 27, 2013

  Actual Average Record
Temperature  
Mean Temperature 79 °F 78 °F  
Max Temperature 92 °F 87 °F 95 °F (1953)
Min Temperature 65 °F 70 °F 52 °F (1979)
Degree Days  
Heating Degree Days 0 0  
Month to date heating degree days 0 0  
Since 1 July heating degree days 397 477  
Cooling Degree Days 14 13  
Month to date cooling degree days 274 299  
Year to date cooling degree days 798 696  
Growing Degree Days 28 (Base 50)    
Moisture  
Dew Point 61 °F    
Average Humidity 57    
Maximum Humidity 87    
Minimum Humidity 32    
Precipitation  
Precipitation 0.00 in 0.08 in 0.73 in (1939)
Month to date precipitation 1.46 1.79  
Year to date precipitation 7.59 13.28  
Sea Level Pressure  
Sea Level Pressure 30.11 in    
Wind  
Wind Speed 10 mph (East)    
Max Wind Speed 20 mph    
Max Gust Speed 26 mph    
Visibility 10 miles    
Events      
T = Trace of Precipitation, MM = Missing Value Source: NWS Daily Summary

Daily Weather History Graph

Daily Weather History Graph

Search for Another Location

Airport or City:

Trip Planner

Search our weather history database for the weather conditions in past years. The results will help you decide how hot, cold, wet, or windy it might be!

Date:

Astronomy

May. 27, 2013 Rise Set
Actual Time 6:36 AM EDT 8:18 PM EDT
Civil Twilight 6:10 AM EDT 8:44 PM EDT
Nautical Twilight 5:39 AM EDT 9:15 PM EDT
Astronomical Twilight 5:06 AM EDT 9:48 PM EDT
Moon 11:02 PM EDT (5/27) 9:08 AM EDT (5/27)
Length of Visible Light 14h 34m
Length of Day
13h 42m
Waning Gibbous, 91% of the Moon is Illuminated
May 27
Waning Gibbous
May 31
Last Quarter
Jun 8
New
Jun 16
First Quarter
Jun 23
Full

Hourly Weather History & Observations

Time (EDT) Temp. Heat Index Dew Point Humidity Pressure Visibility Wind Dir Wind Speed Gust Speed Precip Events Conditions
12:53 AM 72.0 °F - 62.1 °F 71% 30.17 in 10.0 mi East 10.4 mph - N/A   Clear
1:53 AM 70.0 °F - 62.1 °F 76% 30.17 in 10.0 mi ENE 6.9 mph - N/A   Clear
2:53 AM 69.1 °F - 62.1 °F 78% 30.14 in 10.0 mi East 8.1 mph - N/A   Clear
3:53 AM 68.0 °F - 62.1 °F 81% 30.13 in 10.0 mi ENE 6.9 mph - N/A   Clear
4:53 AM 66.9 °F - 62.1 °F 84% 30.13 in 10.0 mi ENE 5.8 mph - N/A   Clear
5:53 AM 66.0 °F - 62.1 °F 87% 30.13 in 10.0 mi ENE 3.5 mph - N/A   Clear
6:53 AM 66.0 °F - 62.1 °F 87% 30.14 in 10.0 mi East 5.8 mph - N/A   Clear
7:53 AM 69.1 °F - 63.0 °F 81% 30.14 in 10.0 mi ENE 8.1 mph - N/A   Clear
8:53 AM 75.9 °F - 62.1 °F 62% 30.15 in 10.0 mi East 11.5 mph - N/A   Clear
9:53 AM 80.1 °F 80.9 °F 60.1 °F 50% 30.14 in 10.0 mi East 13.8 mph - N/A   Clear
10:53 AM 82.0 °F 82.4 °F 60.1 °F 47% 30.14 in 10.0 mi East 11.5 mph - N/A   Clear
11:53 AM 84.9 °F 84.4 °F 59.0 °F 41% 30.14 in 10.0 mi ENE 9.2 mph 17.3 mph N/A   Clear
12:53 PM 86.0 °F 84.7 °F 55.9 °F 36% 30.14 in 10.0 mi East 12.7 mph - N/A   Overcast
1:53 PM 89.1 °F 87.7 °F 57.0 °F 34% 30.13 in 10.0 mi SE 8.1 mph 19.6 mph N/A   Mostly Cloudy
2:53 PM 89.1 °F 88.0 °F 57.9 °F 35% 30.11 in 10.0 mi East 8.1 mph - N/A   Scattered Clouds
3:53 PM 88.0 °F 86.9 °F 57.9 °F 36% 30.07 in 10.0 mi East 6.9 mph - N/A   Mostly Cloudy
4:53 PM 91.0 °F 90.0 °F 57.9 °F 33% 30.06 in 10.0 mi East 12.7 mph - N/A   Clear
5:53 PM 89.1 °F 88.0 °F 57.9 °F 35% 30.04 in 10.0 mi East 11.5 mph 17.3 mph N/A   Mostly Cloudy
6:53 PM 88.0 °F 86.9 °F 57.9 °F 36% 30.03 in 10.0 mi East 10.4 mph 17.3 mph N/A   Scattered Clouds
7:53 PM 84.9 °F 84.8 °F 60.1 °F 43% 30.04 in 10.0 mi East 11.5 mph - N/A   Partly Cloudy
8:53 PM 82.0 °F 82.7 °F 61.0 °F 49% 30.06 in 10.0 mi East 11.5 mph - N/A   Partly Cloudy
9:53 PM 80.1 °F 81.2 °F 62.1 °F 54% 30.08 in 10.0 mi East 10.4 mph - N/A   Partly Cloudy
10:53 PM 78.1 °F - 66.0 °F 66% 30.10 in 10.0 mi East 13.8 mph 25.3 mph N/A   Clear
11:53 PM 75.9 °F - 66.9 °F 74% 30.12 in 10.0 mi East 13.8 mph 20.7 mph N/A   Clear